Other Public Products
Issued by NWS Charleston, SC

Home | Current Version | Previous Version | Text Only | Print | Product List | Glossary On
Versions: 1 2 3 4 5 6 7 8 9 10 11 12 13 14 15 16 17 18 19 20 21 22 23 24 25 26 27 28 29 30 31 32 33 34 35 36 37 38 39 40 41 42 43 44 45 46 47 48 49 50
000
FPUS82 KCHS 251329
OPUCHS

TEST...KCHS/KSAV Gateway Observations...TEST
National Weather Service Charleston SC
900 AM EDT MON SEP 25 2017

NOTE: "fair" indicates few or no clouds below 12,000 feet with no
significant weather and/or obstructions to visibility.

SCZ050-WAZ558-NCZ071-TXZ119-213-PAZ071-DCZ001-FLZ074-172-MI076-
NYZ176-178-MAZ016-IL014-TNZ027-NJZ106-GAZ044-MD014-251400-

...Gateway Observations for Charleston International...

CITY           SKY/WX    TMP DP  RH WIND       PRES   REMARKS
Chas Airport   PTSUNNY   73  66  78 N9        29.94S
Seattle        CLOUDY    57  52  83 CALM      30.10S
Charlotte      PTSUNNY   68  66  93 N6        30.06S
Dallas DFW     MOCLDY    73  68  84 E6        29.90R
Dallas Love    PTCLDY    74  67  78 SE6       29.92R
Philladelphia  MOSUNNY   75  68  78 SE3       30.07R
Wash National  MOSUNNY   76  69  79 NE3       30.07R
Baltimore      MOSUNNY   76  69  79 CALM      30.06R
Miami          PTSUNNY   82  76  81 CALM      29.91R
Detroit        PTSUNNY   75  68  78 CALM      30.08R HAZE
Newark         MOSUNNY   79  68  69 N5        30.07R
Laguardia      SUNNY     76  66  71 NE6       30.07R
J F K          MOSUNNY   73  67  81 S6        30.08R
Boston Logan   SUNNY     69  65  86 SE3       30.08S
Ft. Lauderdale PTSUNNY   85  76  74 N5        29.90R HX  94
Chicago O`Hare MOSUNNY   72  58  61 SW5       30.01S
Chicago Midway MOSUNNY   74  58  57 S5        30.02R
Houston Bush   PTCLDY    74  73  97 NE6       29.89R
Houston Hobby  PTCLDY    79  72  79 E3        29.88R
Nashville      MOSUNNY   69  66  90 CALM      30.06R
Atlanta        MOSUNNY   74  63  68 NE12G18   30.04R

$$

GAZ044-118-TXZ119-213-NCZ071-DCZ001-MDZ014-506-PAZ021-071-NJZ106-
NYZ176-178-MAZ106-OHZ011-021-055-MIZ076-KYZ091-ILZ014-INZ047-
MNZ060-ONZ431-251400-

...Gateway Observations for Savannah International...

CITY           SKY/WX    TMP DP  RH WIND       PRES   REMARKS
Savannah Arpt  PTSUNNY   71  68  90 N6        29.95S
Atlanta        MOSUNNY   74  63  68 NE12G18   30.04R
Charlotte      PTSUNNY   68  66  93 N6        30.06S
Dallas DFW     MOCLDY    73  68  84 E6        29.90R
Houston Bush   PTCLDY    74  73  97 NE6       29.89R
Wash National  MOSUNNY   76  69  79 NE3       30.07R
Wash Dulles    MOSUNNY   73  69  87 CALM      30.07S
Baltimore      MOSUNNY   76  69  79 CALM      30.06R
Philadelphia   MOSUNNY   75  68  78 SE3       30.07R
Newark         MOSUNNY   79  68  69 N5        30.07R
Laguardia      SUNNY     76  66  71 NE6       30.07R
J F K          MOSUNNY   73  67  81 S6        30.08R
Boston         SUNNY     69  65  86 SE3       30.08S
Pittsburg      PTSUNNY   70  65  84 CALM      30.11R
Akron          MOSUNNY   72  63  73 SE5       30.11R
Cleveland      MOSUNNY   78  66  66 S7        30.10R
Cincinnati     MOSUNNY   68  63  84 CALM      30.07R
Columbus       MOSUNNY   69  65  86 CALM      30.07R
Detroit        PTSUNNY   75  68  78 CALM      30.08R HAZE
Chicago O`Hare MOSUNNY   72  58  61 SW5       30.01S
Minneapolis    CLOUDY    60  59  96 NW6       29.99S
Indianapolis   PTSUNNY   70  58  65 CALM      30.06R
Toronto Canada PTSUNNY   77  66  69 NE2       30.10R

$$




USA.gov is the U.S. government's official web portal to all federal, state and local government web resources and services.